Year,Month,Day,Hour,Minute,Value (Times are PST for temperature in C)
2013,03,26,08,29,6.60
2013,03,26,08,30,6.70
2013,03,26,08,31,6.80
2013,03,26,08,32,6.80
2013,03,26,08,33,6.90
2013,03,26,08,34,7.00
2013,03,26,08,35,7.10
2013,03,26,08,36,7.10
2013,03,26,08,37,7.20
2013,03,26,08,38,7.30
2013,03,26,08,39,7.40
2013,03,26,08,40,7.50
2013,03,26,08,41,7.60
2013,03,26,08,42,7.60
2013,03,26,08,43,7.70
2013,03,26,08,44,7.80
2013,03,26,08,45,7.90
2013,03,26,08,46,8.00
2013,03,26,08,47,8.00
2013,03,26,08,48,8.10
2013,03,26,08,49,8.20
2013,03,26,08,50,8.20
2013,03,26,08,51,8.30
2013,03,26,08,52,8.40
2013,03,26,08,53,8.40
2013,03,26,08,54,8.50
2013,03,26,08,55,8.50
2013,03,26,08,56,8.50
2013,03,26,08,57,8.60
2013,03,26,08,58,8.60
2013,03,26,08,59,8.60
2013,03,26,09,00,8.60
2013,03,26,09,01,8.60
2013,03,26,09,02,8.60
2013,03,26,09,03,8.60
2013,03,26,09,04,8.60
2013,03,26,09,05,8.60
2013,03,26,09,06,8.60
2013,03,26,09,07,8.60
2013,03,26,09,08,8.60
2013,03,26,09,09,8.60
2013,03,26,09,10,8.60
2013,03,26,09,11,8.70
2013,03,26,09,12,8.70
2013,03,26,09,13,8.70
2013,03,26,09,14,8.70
2013,03,26,09,15,8.70
2013,03,26,09,16,8.70
2013,03,26,09,17,8.70
2013,03,26,09,18,8.70
2013,03,26,09,19,8.70
2013,03,26,09,20,8.80
2013,03,26,09,21,8.90
2013,03,26,09,22,8.90
2013,03,26,09,23,8.90
2013,03,26,09,24,8.90
2013,03,26,09,25,9.00
2013,03,26,09,26,9.00
2013,03,26,09,27,9.10
2013,03,26,09,28,9.10
2013,03,26,09,29,9.10
2013,03,26,09,30,9.20
2013,03,26,09,31,9.20
2013,03,26,09,32,9.20
2013,03,26,09,33,9.30
2013,03,26,09,34,9.30
2013,03,26,09,35,9.30
2013,03,26,09,36,9.40
2013,03,26,09,37,9.40
2013,03,26,09,38,9.40
2013,03,26,09,39,9.40
2013,03,26,09,40,9.50
2013,03,26,09,41,9.50
2013,03,26,09,42,9.50
2013,03,26,09,43,9.50
2013,03,26,09,44,9.60
2013,03,26,09,45,9.60
2013,03,26,09,46,9.60
2013,03,26,09,47,9.70
2013,03,26,09,48,9.70
2013,03,26,09,49,9.70
2013,03,26,09,50,9.70
2013,03,26,09,51,9.70
2013,03,26,09,52,9.70
2013,03,26,09,53,9.70
2013,03,26,09,54,9.70
2013,03,26,09,55,9.80
2013,03,26,09,56,9.80
2013,03,26,09,57,9.80
2013,03,26,09,58,9.80
2013,03,26,09,59,9.80
2013,03,26,10,00,9.90
2013,03,26,10,01,9.90
2013,03,26,10,02,9.90
2013,03,26,10,03,9.90
2013,03,26,10,04,9.90
2013,03,26,10,05,9.90
2013,03,26,10,06,10.10
2013,03,26,10,07,10.10
2013,03,26,10,08,10.10
2013,03,26,10,09,10.10
2013,03,26,10,10,10.10
2013,03,26,10,11,10.20
2013,03,26,10,12,10.20
2013,03,26,10,13,10.20
2013,03,26,10,14,10.20
2013,03,26,10,15,10.20
2013,03,26,10,16,10.20
2013,03,26,10,17,10.20
2013,03,26,10,18,10.20
2013,03,26,10,19,10.20
2013,03,26,10,20,10.20
2013,03,26,10,21,10.20
2013,03,26,10,22,10.20
2013,03,26,10,23,10.20
2013,03,26,10,24,10.30
2013,03,26,10,25,10.30
2013,03,26,10,26,10.30
2013,03,26,10,27,10.30
2013,03,26,10,28,10.30
2013,03,26,10,29,10.30
2013,03,26,10,30,10.30
2013,03,26,10,31,10.30
2013,03,26,10,32,10.40
2013,03,26,10,33,10.40
2013,03,26,10,34,10.40
2013,03,26,10,35,10.40
2013,03,26,10,36,10.40
2013,03,26,10,37,10.40
2013,03,26,10,38,10.40
2013,03,26,10,39,10.40
2013,03,26,10,40,10.40
2013,03,26,10,41,10.40
2013,03,26,10,42,10.40
2013,03,26,10,43,10.40
2013,03,26,10,44,10.40
2013,03,26,10,45,10.40
2013,03,26,10,46,10.40
2013,03,26,10,47,10.40
2013,03,26,10,48,10.40
2013,03,26,10,49,10.50
2013,03,26,10,50,10.60
2013,03,26,10,51,10.60
2013,03,26,10,52,10.60
2013,03,26,10,53,10.60
2013,03,26,10,54,10.70
2013,03,26,10,55,10.70
2013,03,26,10,56,10.70
2013,03,26,10,57,10.70
2013,03,26,10,58,10.70
2013,03,26,10,59,10.70
2013,03,26,11,00,10.60
2013,03,26,11,01,10.70
2013,03,26,11,02,10.70
2013,03,26,11,03,10.80
2013,03,26,11,04,10.90
2013,03,26,11,05,10.90
2013,03,26,11,06,11.00
2013,03,26,11,07,11.10
2013,03,26,11,08,11.10
2013,03,26,11,09,11.10
2013,03,26,11,10,11.10
2013,03,26,11,11,11.10
2013,03,26,11,12,11.10
2013,03,26,11,13,11.10
2013,03,26,11,14,11.20
2013,03,26,11,15,11.30
2013,03,26,11,16,11.40
2013,03,26,11,17,11.40
2013,03,26,11,18,11.40
2013,03,26,11,19,11.40
2013,03,26,11,20,11.50
2013,03,26,11,21,11.60
2013,03,26,11,22,11.60
2013,03,26,11,23,11.60
2013,03,26,11,24,11.60
2013,03,26,11,25,11.60
2013,03,26,11,26,11.60
2013,03,26,11,27,11.60
2013,03,26,11,28,11.60
2013,03,26,11,29,11.60
2013,03,26,11,30,11.60
2013,03,26,11,31,11.70
2013,03,26,11,32,11.70
2013,03,26,11,33,11.80
2013,03,26,11,34,11.80
2013,03,26,11,35,11.80
2013,03,26,11,36,11.80
2013,03,26,11,37,11.80
2013,03,26,11,38,11.80
2013,03,26,11,39,11.90
2013,03,26,11,40,12.00
2013,03,26,11,41,12.00
2013,03,26,11,42,12.00
2013,03,26,11,43,12.00
2013,03,26,11,44,12.10
2013,03,26,11,45,12.10
2013,03,26,11,46,12.10
2013,03,26,11,47,12.10
2013,03,26,11,48,12.10
2013,03,26,11,49,12.10
2013,03,26,11,50,12.20
2013,03,26,11,51,12.30
2013,03,26,11,52,12.30
2013,03,26,11,53,12.40
2013,03,26,11,54,12.40
2013,03,26,11,55,12.50
2013,03,26,11,56,12.40
2013,03,26,11,57,12.30
2013,03,26,11,58,12.30
2013,03,26,11,59,12.30
2013,03,26,12,00,12.40
2013,03,26,12,01,12.50
2013,03,26,12,02,12.50
2013,03,26,12,03,12.60
2013,03,26,12,04,12.60
2013,03,26,12,05,12.70
2013,03,26,12,06,12.70
2013,03,26,12,07,12.80
2013,03,26,12,08,12.80
2013,03,26,12,09,12.70
2013,03,26,12,10,12.60
2013,03,26,12,11,12.60
2013,03,26,12,12,12.60
2013,03,26,12,13,12.60
2013,03,26,12,14,12.60
2013,03,26,12,15,12.70
2013,03,26,12,16,12.70
2013,03,26,12,17,12.70
2013,03,26,12,18,12.70
2013,03,26,12,19,12.70
2013,03,26,12,20,12.60
2013,03,26,12,21,12.60
2013,03,26,12,22,12.60
2013,03,26,12,23,12.60
2013,03,26,12,24,12.60
2013,03,26,12,25,12.60
2013,03,26,12,26,12.60
2013,03,26,12,27,12.60
2013,03,26,12,28,12.60
2013,03,26,12,29,12.80
2013,03,26,12,30,12.80
2013,03,26,12,31,12.80
2013,03,26,12,32,12.90
2013,03,26,12,33,13.00
2013,03,26,12,34,13.00
2013,03,26,12,35,13.00
2013,03,26,12,36,12.90
2013,03,26,12,37,12.90
2013,03,26,12,38,12.90
2013,03,26,12,39,12.90
2013,03,26,12,40,12.90
2013,03,26,12,41,12.90
2013,03,26,12,42,13.00
2013,03,26,12,43,13.00
2013,03,26,12,44,13.10
2013,03,26,12,45,13.20
2013,03,26,12,46,13.20
2013,03,26,12,47,13.30
2013,03,26,12,48,13.30
2013,03,26,12,49,13.20
2013,03,26,12,50,13.20
2013,03,26,12,51,13.30
2013,03,26,12,52,13.30
2013,03,26,12,53,13.30
2013,03,26,12,54,13.20
2013,03,26,12,55,13.10
2013,03,26,12,56,13.00
2013,03,26,12,57,13.00
2013,03,26,12,58,12.90
2013,03,26,12,59,12.90
2013,03,26,13,00,12.90
2013,03,26,13,01,12.90
2013,03,26,13,02,12.90
2013,03,26,13,03,12.90
2013,03,26,13,04,12.90
2013,03,26,13,05,13.00
2013,03,26,13,06,13.00
2013,03,26,13,07,13.00
2013,03,26,13,08,13.00
2013,03,26,13,09,13.00
2013,03,26,13,10,13.00
2013,03,26,13,11,13.00
2013,03,26,13,12,12.80
2013,03,26,13,13,12.70
2013,03,26,13,14,12.60
2013,03,26,13,15,12.50
2013,03,26,13,16,12.50
2013,03,26,13,17,12.50
2013,03,26,13,18,12.50
2013,03,26,13,19,12.50
2013,03,26,13,20,12.50
2013,03,26,13,21,12.50
2013,03,26,13,22,12.50
2013,03,26,13,23,12.50
2013,03,26,13,24,12.50
2013,03,26,13,25,12.50
2013,03,26,13,26,12.40
2013,03,26,13,27,12.40
2013,03,26,13,28,12.40
2013,03,26,13,29,12.40
2013,03,26,13,30,12.40
2013,03,26,13,31,12.40
2013,03,26,13,32,12.30
2013,03,26,13,33,12.30
2013,03,26,13,34,12.20
2013,03,26,13,35,12.20
2013,03,26,13,36,12.10
2013,03,26,13,37,12.00
2013,03,26,13,38,11.90
2013,03,26,13,39,11.80
2013,03,26,13,40,11.80
2013,03,26,13,41,11.70
2013,03,26,13,42,11.60
2013,03,26,13,43,11.60
2013,03,26,13,44,11.60
2013,03,26,13,45,11.60
2013,03,26,13,46,11.60
2013,03,26,13,47,11.60
2013,03,26,13,48,11.60
2013,03,26,13,49,11.70
2013,03,26,13,50,11.70
2013,03,26,13,51,11.70
2013,03,26,13,52,11.80
2013,03,26,13,53,11.70
2013,03,26,13,54,11.70
2013,03,26,13,55,11.70
2013,03,26,13,56,11.60
2013,03,26,13,57,11.60
2013,03,26,13,58,11.60
2013,03,26,13,59,11.70
2013,03,26,14,00,11.70
2013,03,26,14,01,11.80
2013,03,26,14,02,11.80
2013,03,26,14,03,11.80
2013,03,26,14,04,11.90
2013,03,26,14,05,11.90
2013,03,26,14,06,12.00
2013,03,26,14,07,12.00
2013,03,26,14,08,12.00
2013,03,26,14,09,11.90
2013,03,26,14,10,11.90
2013,03,26,14,11,11.80
2013,03,26,14,12,11.80
2013,03,26,14,13,11.80
2013,03,26,14,14,11.90
2013,03,26,14,15,11.90
2013,03,26,14,16,11.90
2013,03,26,14,17,11.90
2013,03,26,14,18,11.80
2013,03,26,14,19,11.80
2013,03,26,14,20,11.80
2013,03,26,14,21,11.70
2013,03,26,14,22,11.70
2013,03,26,14,23,11.70
2013,03,26,14,24,11.60
2013,03,26,14,25,11.60
2013,03,26,14,26,11.70
2013,03,26,14,27,11.70
2013,03,26,14,28,11.80
2013,03,26,14,29,11.80
2013,03,26,14,30,11.90
2013,03,26,14,31,11.90
2013,03,26,14,32,11.90
2013,03,26,14,33,11.90
2013,03,26,14,34,11.80
2013,03,26,14,35,11.80
2013,03,26,14,36,11.80
2013,03,26,14,37,11.70
2013,03,26,14,38,11.60
2013,03,26,14,39,11.60
2013,03,26,14,40,11.60
2013,03,26,14,41,11.60
2013,03,26,14,42,11.50
2013,03,26,14,43,11.40
2013,03,26,14,44,11.40
2013,03,26,14,45,11.40
2013,03,26,14,46,11.40
2013,03,26,14,47,11.40
2013,03,26,14,48,11.50
2013,03,26,14,49,11.60
2013,03,26,14,50,11.60
2013,03,26,14,51,11.70
2013,03,26,14,52,11.80
2013,03,26,14,53,11.80
2013,03,26,14,54,11.80
2013,03,26,14,55,11.90
2013,03,26,14,56,11.90
2013,03,26,14,57,12.00
2013,03,26,14,58,12.00
2013,03,26,14,59,12.10
2013,03,26,15,00,12.20
2013,03,26,15,01,12.30
2013,03,26,15,02,12.30
2013,03,26,15,03,12.30
2013,03,26,15,04,12.40
2013,03,26,15,05,12.50
2013,03,26,15,06,12.60
2013,03,26,15,07,12.70
2013,03,26,15,08,12.90
2013,03,26,15,09,12.90
2013,03,26,15,10,13.00
2013,03,26,15,11,13.00
2013,03,26,15,12,13.10
2013,03,26,15,13,13.10
2013,03,26,15,14,13.20
2013,03,26,15,15,13.20
2013,03,26,15,16,13.20
2013,03,26,15,17,13.30
2013,03,26,15,18,13.30
2013,03,26,15,19,13.30
2013,03,26,15,20,13.30
2013,03,26,15,21,13.30
2013,03,26,15,22,13.20
2013,03,26,15,23,13.20
2013,03,26,15,24,13.10
2013,03,26,15,25,13.00
2013,03,26,15,26,13.00
2013,03,26,15,27,12.90
2013,03,26,15,28,12.80
2013,03,26,15,29,12.80
2013,03,26,15,30,12.70
2013,03,26,15,31,12.70
2013,03,26,15,32,12.70
2013,03,26,15,33,12.70
2013,03,26,15,34,12.70
2013,03,26,15,35,12.70
2013,03,26,15,36,12.60
2013,03,26,15,37,12.60
2013,03,26,15,38,12.60
2013,03,26,15,39,12.60
2013,03,26,15,40,12.50
2013,03,26,15,41,12.40
2013,03,26,15,42,12.30
2013,03,26,15,43,12.30
2013,03,26,15,44,12.20
2013,03,26,15,45,12.10
2013,03,26,15,46,12.00
2013,03,26,15,47,12.00
2013,03,26,15,48,12.00
2013,03,26,15,49,12.00
2013,03,26,15,50,11.90
2013,03,26,15,51,11.90
2013,03,26,15,52,11.90
2013,03,26,15,53,11.80
2013,03,26,15,54,11.80
2013,03,26,15,55,11.80
2013,03,26,15,56,11.80
2013,03,26,15,57,11.80
2013,03,26,15,58,11.80
2013,03,26,15,59,11.80
2013,03,26,16,00,11.80
2013,03,26,16,01,11.80
2013,03,26,16,02,11.80
2013,03,26,16,03,11.80
2013,03,26,16,04,11.80
2013,03,26,16,05,11.80
2013,03,26,16,06,11.90
2013,03,26,16,07,11.90
2013,03,26,16,08,11.90
2013,03,26,16,09,11.90
2013,03,26,16,10,11.90
2013,03,26,16,11,11.90
2013,03,26,16,12,11.90
2013,03,26,16,13,11.90
2013,03,26,16,14,11.90
2013,03,26,16,15,11.80
2013,03,26,16,16,11.80
2013,03,26,16,17,11.80
2013,03,26,16,18,11.80
2013,03,26,16,19,11.80
2013,03,26,16,20,11.90
2013,03,26,16,21,11.90
2013,03,26,16,22,11.90
2013,03,26,16,23,12.00
2013,03,26,16,24,12.00
2013,03,26,16,25,12.00
2013,03,26,16,26,12.00
2013,03,26,16,27,12.10
2013,03,26,16,28,12.10
2013,03,26,16,29,12.00
2013,03,26,16,30,12.00
2013,03,26,16,31,12.00
2013,03,26,16,32,12.00
2013,03,26,16,33,11.90
2013,03,26,16,34,11.90
2013,03,26,16,35,11.90
2013,03,26,16,36,11.90
2013,03,26,16,37,11.90
2013,03,26,16,38,12.00
2013,03,26,16,39,12.00
2013,03,26,16,40,12.00
2013,03,26,16,41,12.00
2013,03,26,16,42,12.00
2013,03,26,16,43,12.00
2013,03,26,16,44,12.00
2013,03,26,16,45,12.00
2013,03,26,16,46,12.00
2013,03,26,16,47,12.00
2013,03,26,16,48,12.00
2013,03,26,16,49,12.10
2013,03,26,16,50,12.10
2013,03,26,16,51,12.10
2013,03,26,16,52,12.10
2013,03,26,16,53,12.10
2013,03,26,16,54,12.10
2013,03,26,16,55,12.10
2013,03,26,16,56,12.20
2013,03,26,16,57,12.20
2013,03,26,16,58,12.30
2013,03,26,16,59,12.30
2013,03,26,17,00,12.30
2013,03,26,17,01,12.20
2013,03,26,17,02,12.10
2013,03,26,17,03,12.10
2013,03,26,17,04,12.00
2013,03,26,17,05,12.00
2013,03,26,17,06,11.90
2013,03,26,17,07,11.90
2013,03,26,17,08,11.90
2013,03,26,17,09,11.80
2013,03,26,17,10,11.80
2013,03,26,17,11,11.80
2013,03,26,17,12,11.80
2013,03,26,17,13,11.80
2013,03,26,17,14,11.80
2013,03,26,17,15,11.80
2013,03,26,17,16,11.80
2013,03,26,17,17,11.80
2013,03,26,17,18,11.80
2013,03,26,17,19,11.70
2013,03,26,17,20,11.70
2013,03,26,17,21,11.70
2013,03,26,17,22,11.60
2013,03,26,17,23,11.60
2013,03,26,17,24,11.60
2013,03,26,17,25,11.70
2013,03,26,17,26,11.70
2013,03,26,17,27,11.70
2013,03,26,17,28,11.80
2013,03,26,17,29,11.80
2013,03,26,17,30,11.80
2013,03,26,17,31,11.80
2013,03,26,17,32,11.80
2013,03,26,17,33,11.80
2013,03,26,17,34,11.80
2013,03,26,17,35,11.80
2013,03,26,17,36,11.80
2013,03,26,17,37,11.80
2013,03,26,17,38,11.80
2013,03,26,17,39,11.90
2013,03,26,17,40,11.90
2013,03,26,17,41,11.90
2013,03,26,17,42,11.90
2013,03,26,17,43,11.90
2013,03,26,17,44,11.90
2013,03,26,17,45,11.90
2013,03,26,17,46,11.90
2013,03,26,17,47,11.90
2013,03,26,17,48,11.90
2013,03,26,17,49,11.90
2013,03,26,17,50,11.90
2013,03,26,17,51,11.90
2013,03,26,17,52,11.90
2013,03,26,17,53,11.80
2013,03,26,17,54,11.80
2013,03,26,17,55,11.80
2013,03,26,17,56,11.80
2013,03,26,17,57,11.80
2013,03,26,17,58,11.80
2013,03,26,17,59,11.80
2013,03,26,18,00,11.80
2013,03,26,18,01,11.80
2013,03,26,18,02,11.80
2013,03,26,18,03,11.80
2013,03,26,18,04,11.80
2013,03,26,18,05,11.80
2013,03,26,18,06,11.80
2013,03,26,18,07,11.70
2013,03,26,18,08,11.70
2013,03,26,18,09,11.60
2013,03,26,18,10,11.60
2013,03,26,18,11,11.60
2013,03,26,18,12,11.60
2013,03,26,18,13,11.60
2013,03,26,18,14,11.60
2013,03,26,18,15,11.60
2013,03,26,18,16,11.60
2013,03,26,18,17,11.50
2013,03,26,18,18,11.40
2013,03,26,18,19,11.40
2013,03,26,18,20,11.40
2013,03,26,18,21,11.40
2013,03,26,18,22,11.30
2013,03,26,18,23,11.30
2013,03,26,18,24,11.30
2013,03,26,18,25,11.30
2013,03,26,18,26,11.30
2013,03,26,18,27,11.30
2013,03,26,18,28,11.30
2013,03,26,18,29,11.20
2013,03,26,18,30,11.20
2013,03,26,18,31,11.20
2013,03,26,18,32,11.10
2013,03,26,18,33,11.10
2013,03,26,18,34,11.10
2013,03,26,18,35,11.10
2013,03,26,18,36,11.10
2013,03,26,18,37,11.00
2013,03,26,18,38,10.90
2013,03,26,18,39,10.90
2013,03,26,18,40,10.90
2013,03,26,18,41,10.90
2013,03,26,18,42,10.90
2013,03,26,18,43,10.90
2013,03,26,18,44,10.90
2013,03,26,18,45,10.90
2013,03,26,18,46,10.80
2013,03,26,18,47,10.80
2013,03,26,18,48,10.80
2013,03,26,18,49,10.80
2013,03,26,18,50,10.80
2013,03,26,18,51,10.80
2013,03,26,18,52,10.80
2013,03,26,18,53,10.80
2013,03,26,18,54,10.80
2013,03,26,18,55,10.80
2013,03,26,18,56,10.80
2013,03,26,18,57,10.90
2013,03,26,18,58,10.90
2013,03,26,18,59,10.90
2013,03,26,19,00,10.80
2013,03,26,19,01,10.80
2013,03,26,19,02,10.80
2013,03,26,19,03,10.80
2013,03,26,19,04,10.80
2013,03,26,19,05,10.80
2013,03,26,19,06,10.80
2013,03,26,19,07,10.80
2013,03,26,19,08,10.80
2013,03,26,19,09,10.80
2013,03,26,19,10,10.80
2013,03,26,19,11,10.80
2013,03,26,19,12,10.80
2013,03,26,19,13,10.80
2013,03,26,19,14,10.80
2013,03,26,19,15,10.80
2013,03,26,19,16,10.80
2013,03,26,19,17,10.80
2013,03,26,19,18,10.80
2013,03,26,19,19,10.80
2013,03,26,19,20,10.80
2013,03,26,19,21,10.80
2013,03,26,19,22,10.80
2013,03,26,19,23,10.70
2013,03,26,19,24,10.70
2013,03,26,19,25,10.70
2013,03,26,19,26,10.70
2013,03,26,19,27,10.70
2013,03,26,19,28,10.70
2013,03,26,19,29,10.70
2013,03,26,19,30,10.60
2013,03,26,19,31,10.60
2013,03,26,19,32,10.60
2013,03,26,19,33,10.60
2013,03,26,19,34,10.60
2013,03,26,19,35,10.60
2013,03,26,19,36,10.50
2013,03,26,19,37,10.40
2013,03,26,19,38,10.40
2013,03,26,19,39,10.40
2013,03,26,19,40,10.40
2013,03,26,19,41,10.30
2013,03,26,19,42,10.30
2013,03,26,19,43,10.30
2013,03,26,19,44,10.30
2013,03,26,19,45,10.30
2013,03,26,19,46,10.30
2013,03,26,19,47,10.20
2013,03,26,19,48,10.20
2013,03,26,19,49,10.20
2013,03,26,19,50,10.10
2013,03,26,19,51,10.10
2013,03,26,19,52,10.10
2013,03,26,19,53,10.10
2013,03,26,19,54,10.10
2013,03,26,19,55,10.10
2013,03,26,19,56,10.10
2013,03,26,19,57,10.00
2013,03,26,19,58,9.90
2013,03,26,19,59,9.90
2013,03,26,20,00,9.90
2013,03,26,20,01,9.90
2013,03,26,20,02,9.90
2013,03,26,20,03,9.90
2013,03,26,20,04,9.90
2013,03,26,20,05,9.80
2013,03,26,20,06,9.80
2013,03,26,20,07,9.80
2013,03,26,20,08,9.70
2013,03,26,20,09,9.70
2013,03,26,20,10,9.70
2013,03,26,20,11,9.70
2013,03,26,20,12,9.70
2013,03,26,20,13,9.70
2013,03,26,20,14,9.70
2013,03,26,20,15,9.60
2013,03,26,20,16,9.60
2013,03,26,20,17,9.60
2013,03,26,20,18,9.50
2013,03,26,20,19,9.50
2013,03,26,20,20,9.50
2013,03,26,20,21,9.40
2013,03,26,20,22,9.40
2013,03,26,20,23,9.40
2013,03,26,20,24,9.40
2013,03,26,20,25,9.40
2013,03,26,20,26,9.40
2013,03,26,20,27,9.30
2013,03,26,20,28,9.30
2013,03,26,20,29,9.30
2013,03,26,20,30,9.30
2013,03,26,20,31,9.30
2013,03,26,20,32,9.30
2013,03,26,20,33,9.30
2013,03,26,20,34,9.30
2013,03,26,20,35,9.30
2013,03,26,20,36,9.30
2013,03,26,20,37,9.20
2013,03,26,20,38,9.20
2013,03,26,20,39,9.20
2013,03,26,20,40,9.20
2013,03,26,20,41,9.20
2013,03,26,20,42,9.20
2013,03,26,20,43,9.20
2013,03,26,20,44,9.20
2013,03,26,20,45,9.20
2013,03,26,20,46,9.20
2013,03,26,20,47,9.20
2013,03,26,20,48,9.20
2013,03,26,20,49,9.20
2013,03,26,20,50,9.20
2013,03,26,20,51,9.20
2013,03,26,20,52,9.10
2013,03,26,20,53,9.10
2013,03,26,20,54,9.10
2013,03,26,20,55,9.10
2013,03,26,20,56,9.10
2013,03,26,20,57,9.10
2013,03,26,20,58,9.00
2013,03,26,20,59,9.00
2013,03,26,21,00,9.00
2013,03,26,21,01,9.00
2013,03,26,21,02,9.00
2013,03,26,21,03,8.90
2013,03,26,21,04,8.90
2013,03,26,21,05,8.90
2013,03,26,21,06,8.90
2013,03,26,21,07,8.90
2013,03,26,21,08,8.90
2013,03,26,21,09,8.80
2013,03,26,21,10,8.80
2013,03,26,21,11,8.80
2013,03,26,21,12,8.80
2013,03,26,21,13,8.80
2013,03,26,21,14,8.80
2013,03,26,21,15,8.80
2013,03,26,21,16,8.70
2013,03,26,21,17,8.70
2013,03,26,21,18,8.70
2013,03,26,21,19,8.70
2013,03,26,21,20,8.70
2013,03,26,21,21,8.70
2013,03,26,21,22,8.70
2013,03,26,21,23,8.70
2013,03,26,21,24,8.70
2013,03,26,21,25,8.60
2013,03,26,21,26,8.60
2013,03,26,21,27,8.60
2013,03,26,21,28,8.60
2013,03,26,21,29,8.60
2013,03,26,21,30,8.60
2013,03,26,21,31,8.60
2013,03,26,21,32,8.60
2013,03,26,21,33,8.50
2013,03,26,21,34,8.50
2013,03,26,21,35,8.50
2013,03,26,21,36,8.50
2013,03,26,21,37,8.50
2013,03,26,21,38,8.50
2013,03,26,21,39,8.50
2013,03,26,21,40,8.50
2013,03,26,21,41,8.50
2013,03,26,21,42,8.50
2013,03,26,21,43,8.50
2013,03,26,21,44,8.50
2013,03,26,21,45,8.50
2013,03,26,21,46,8.50
2013,03,26,21,47,8.50
2013,03,26,21,48,8.50
2013,03,26,21,49,8.50
2013,03,26,21,50,8.40
2013,03,26,21,51,8.40
2013,03,26,21,52,8.40
2013,03,26,21,53,8.40
2013,03,26,21,54,8.40
2013,03,26,21,55,8.40
2013,03,26,21,56,8.40
2013,03,26,21,57,8.40
2013,03,26,21,58,8.40
2013,03,26,21,59,8.40
2013,03,26,22,00,8.40
2013,03,26,22,01,8.40
2013,03,26,22,02,8.40
2013,03,26,22,03,8.40
2013,03,26,22,04,8.40
2013,03,26,22,05,8.40
2013,03,26,22,06,8.40
2013,03,26,22,07,8.50
2013,03,26,22,08,8.50
2013,03,26,22,09,8.50
2013,03,26,22,10,8.40
2013,03,26,22,11,8.40
2013,03,26,22,12,8.40
2013,03,26,22,13,8.40
2013,03,26,22,14,8.40
2013,03,26,22,15,8.40
2013,03,26,22,16,8.40
2013,03,26,22,17,8.40
2013,03,26,22,18,8.40
2013,03,26,22,19,8.40
2013,03,26,22,20,8.30
2013,03,26,22,21,8.30
2013,03,26,22,22,8.30
2013,03,26,22,23,8.30
2013,03,26,22,24,8.30
2013,03,26,22,25,8.30
2013,03,26,22,26,8.30
2013,03,26,22,27,8.30
2013,03,26,22,28,8.30
2013,03,26,22,29,8.30
2013,03,26,22,30,8.30
2013,03,26,22,31,8.30
2013,03,26,22,32,8.30
2013,03,26,22,33,8.30
2013,03,26,22,34,8.30
2013,03,26,22,35,8.30
2013,03,26,22,36,8.30
2013,03,26,22,37,8.30
2013,03,26,22,38,8.30
2013,03,26,22,39,8.30
2013,03,26,22,40,8.30
2013,03,26,22,41,8.30
2013,03,26,22,42,8.30
2013,03,26,22,43,8.30
2013,03,26,22,44,8.30
2013,03,26,22,45,8.30
2013,03,26,22,46,8.30
2013,03,26,22,47,8.30
2013,03,26,22,48,8.30
2013,03,26,22,49,8.20
2013,03,26,22,50,8.20
2013,03,26,22,51,8.20
2013,03,26,22,52,8.20
2013,03,26,22,53,8.20
2013,03,26,22,54,8.20
2013,03,26,22,55,8.20
2013,03,26,22,56,8.20
2013,03,26,22,57,8.20
2013,03,26,22,58,8.20
2013,03,26,22,59,8.20
2013,03,26,23,00,8.20
2013,03,26,23,01,8.20
2013,03,26,23,02,8.10
2013,03,26,23,03,8.10
2013,03,26,23,04,8.10
2013,03,26,23,05,8.10
2013,03,26,23,06,8.10
2013,03,26,23,07,8.10
2013,03,26,23,08,8.10
2013,03,26,23,09,8.10
2013,03,26,23,10,8.00
2013,03,26,23,11,8.00
2013,03,26,23,12,8.00
2013,03,26,23,13,8.00
2013,03,26,23,14,8.00
2013,03,26,23,15,8.00
2013,03,26,23,16,8.00
2013,03,26,23,17,8.00
2013,03,26,23,18,8.00
2013,03,26,23,19,8.00
2013,03,26,23,20,8.00
2013,03,26,23,21,7.90
2013,03,26,23,22,7.90
2013,03,26,23,23,7.90
2013,03,26,23,24,7.90
2013,03,26,23,25,7.90
2013,03,26,23,26,7.80
2013,03,26,23,27,7.80
2013,03,26,23,28,7.80
2013,03,26,23,29,7.80
2013,03,26,23,30,7.80
2013,03,26,23,31,7.80
2013,03,26,23,32,7.80
2013,03,26,23,33,7.80
2013,03,26,23,34,7.80
2013,03,26,23,35,7.80
2013,03,26,23,36,7.80
2013,03,26,23,37,7.70
2013,03,26,23,38,7.70
2013,03,26,23,39,7.70
2013,03,26,23,40,7.70
2013,03,26,23,41,7.70
2013,03,26,23,42,7.70
2013,03,26,23,43,7.70
2013,03,26,23,44,7.70
2013,03,26,23,45,7.70
2013,03,26,23,46,7.60
2013,03,26,23,47,7.60
2013,03,26,23,48,7.60
2013,03,26,23,49,7.60
2013,03,26,23,50,7.60
2013,03,26,23,51,7.60
2013,03,26,23,52,7.60
2013,03,26,23,53,7.60
2013,03,26,23,54,7.50
2013,03,26,23,55,7.50
2013,03,26,23,56,7.50
2013,03,26,23,57,7.50
2013,03,26,23,58,7.50
2013,03,26,23,59,7.50
